Time,TemperatureF,DewpointF,PressureIn,WindDirection,WindDirectionDegrees,WindSpeedMPH,WindSpeedGustMPH,Humidity,HourlyPrecipIn,Conditions,Clouds,dailyrainin,SoftwareType,DateUTC
2013-04-11 00:00:00,46.2,39.1,31.15,WNW,292,0.0,0.0,76,0.00,,OVC045,0.00,VWS V14.00,2013-04-11 07:00:00,
2013-04-11 00:05:00,46.5,39.7,31.15,WNW,292,0.0,0.0,77,0.00,,OVC045,0.00,VWS V14.00,2013-04-11 07:05:00,
2013-04-11 00:10:00,46.5,39.7,31.16,WNW,292,0.0,0.0,77,0.00,,OVC045,0.00,VWS V14.00,2013-04-11 07:10:00,
2013-04-11 00:15:00,46.5,39.4,31.15,WNW,292,0.0,0.0,76,0.00,,OVC045,0.00,VWS V14.00,2013-04-11 07:15:00,
2013-04-11 00:20:00,46.2,39.1,31.15,WNW,292,0.0,0.0,76,0.00,,OVC045,0.00,VWS V14.00,2013-04-11 07:20:00,
2013-04-11 00:25:00,46.2,39.4,31.15,WNW,292,0.0,0.0,77,0.00,,OVC045,0.00,VWS V14.00,2013-04-11 07:25:00,
2013-04-11 00:30:00,46.2,39.4,31.16,WNW,292,0.0,0.0,77,0.00,,OVC045,0.00,VWS V14.00,2013-04-11 07:30:00,
2013-04-11 00:35:00,46.2,39.4,31.16,WNW,292,0.0,0.0,77,0.00,,OVC045,0.00,VWS V14.00,2013-04-11 07:35:00,
2013-04-11 00:40:00,46.2,39.4,31.16,WNW,292,0.0,0.0,77,0.00,,OVC045,0.00,VWS V14.00,2013-04-11 07:40:00,
2013-04-11 00:45:00,46.2,39.4,31.16,WNW,292,0.0,0.0,77,0.00,,OVC045,0.00,VWS V14.00,2013-04-11 07:45:00,
2013-04-11 00:50:00,46.2,39.4,31.16,WNW,292,0.0,0.0,77,0.00,,OVC045,0.00,VWS V14.00,2013-04-11 07:50:00,
2013-04-11 00:55:00,46.2,39.4,31.16,WNW,292,0.0,0.0,77,0.00,,OVC045,0.00,VWS V14.00,2013-04-11 07:55:00,
2013-04-11 01:00:00,46.2,39.4,31.16,WNW,292,0.0,0.0,77,0.00,,OVC045,0.00,VWS V14.00,2013-04-11 08:00:00,
2013-04-11 01:05:00,46.2,39.7,31.16,WNW,292,0.0,0.0,78,0.00,,OVC047,0.00,VWS V14.00,2013-04-11 08:05:00,
2013-04-11 01:10:00,46.0,39.5,31.16,WNW,292,0.0,0.0,78,0.00,,OVC047,0.00,VWS V14.00,2013-04-11 08:10:00,
2013-04-11 01:15:00,45.6,39.5,31.16,WNW,292,0.0,0.0,79,0.00,,OVC047,0.00,VWS V14.00,2013-04-11 08:15:00,
2013-04-11 01:20:00,45.1,39.0,31.16,WNW,292,0.0,0.0,79,0.00,,OVC047,0.00,VWS V14.00,2013-04-11 08:20:00,
2013-04-11 01:25:00,45.1,39.0,31.16,WNW,292,0.0,0.0,79,0.00,,OVC047,0.00,VWS V14.00,2013-04-11 08:25:00,
2013-04-11 01:30:00,44.9,39.1,31.16,WNW,292,0.0,0.0,80,0.00,,OVC047,0.00,VWS V14.00,2013-04-11 08:30:00,
2013-04-11 01:35:00,44.7,38.9,31.16,WNW,292,0.0,0.0,80,0.00,,OVC047,0.00,VWS V14.00,2013-04-11 08:35:00,
2013-04-11 01:40:00,44.6,39.1,31.17,WNW,292,0.0,0.0,81,0.00,,OVC047,0.00,VWS V14.00,2013-04-11 08:40:00,
2013-04-11 01:45:00,44.6,39.1,31.17,WNW,292,0.0,0.0,81,0.00,,OVC047,0.00,VWS V14.00,2013-04-11 08:45:00,
2013-04-11 01:50:00,44.7,39.5,31.17,WNW,292,0.0,0.0,82,0.00,,OVC047,0.00,VWS V14.00,2013-04-11 08:50:00,
2013-04-11 01:55:00,44.7,39.5,31.17,WNW,292,0.0,0.0,82,0.00,,OVC047,0.00,VWS V14.00,2013-04-11 08:55:00,
2013-04-11 02:00:00,44.9,40.1,31.16,NNE,22,0.0,0.0,83,0.00,,OVC047,0.00,VWS V14.00,2013-04-11 09:00:00,
2013-04-11 02:05:00,44.9,40.1,31.16,NNE,22,0.0,0.0,83,0.00,,OVC047,0.00,VWS V14.00,2013-04-11 09:05:00,
2013-04-11 02:10:00,44.9,40.4,31.16,NNE,22,0.0,0.0,84,0.00,,OVC047,0.00,VWS V14.00,2013-04-11 09:10:00,
2013-04-11 02:15:00,44.9,40.1,31.16,NNE,22,0.0,0.0,83,0.00,,OVC047,0.00,VWS V14.00,2013-04-11 09:15:00,
2013-04-11 02:20:00,44.7,39.9,31.15,NNE,22,0.0,0.0,83,0.00,,OVC047,0.00,VWS V14.00,2013-04-11 09:20:00,
2013-04-11 02:25:00,44.7,40.2,31.15,NNE,22,0.0,0.0,84,0.00,,OVC047,0.00,VWS V14.00,2013-04-11 09:25:00,
2013-04-11 02:30:00,44.7,40.5,31.15,NNE,22,0.0,0.0,85,0.00,,OVC047,0.00,VWS V14.00,2013-04-11 09:30:00,
2013-04-11 02:35:00,44.6,40.4,31.15,NNE,22,0.0,0.0,85,0.00,,OVC047,0.00,VWS V14.00,2013-04-11 09:35:00,
2013-04-11 02:40:00,44.4,40.2,31.15,NNE,22,0.0,0.0,85,0.00,,OVC047,0.00,VWS V14.00,2013-04-11 09:40:00,
2013-04-11 02:45:00,44.4,40.2,31.15,NNE,22,0.0,0.0,85,0.00,,OVC049,0.00,VWS V14.00,2013-04-11 09:45:00,
2013-04-11 02:50:00,44.4,40.2,31.15,NNE,22,0.0,0.0,85,0.00,,OVC049,0.00,VWS V14.00,2013-04-11 09:50:00,
2013-04-11 02:55:00,44.4,40.2,31.15,NNE,22,0.0,0.0,85,0.00,,OVC049,0.00,VWS V14.00,2013-04-11 09:55:00,
2013-04-11 03:00:00,44.4,40.5,31.15,NNE,22,0.0,0.0,86,0.00,,OVC049,0.00,VWS V14.00,2013-04-11 10:00:00,
2013-04-11 03:05:00,44.4,40.5,31.15,NNE,22,0.0,0.0,86,0.00,,OVC049,0.00,VWS V14.00,2013-04-11 10:05:00,
2013-04-11 03:10:00,44.4,40.5,31.15,NNE,22,0.0,0.0,86,0.00,,OVC049,0.00,VWS V14.00,2013-04-11 10:10:00,
2013-04-11 03:15:00,44.4,40.5,31.14,NNE,22,0.0,0.0,86,0.00,,OVC049,0.00,VWS V14.00,2013-04-11 10:15:00,
2013-04-11 03:20:00,44.4,40.5,31.14,NNE,22,0.0,0.0,86,0.00,,OVC049,0.00,VWS V14.00,2013-04-11 10:20:00,
2013-04-11 03:25:00,44.4,40.5,31.14,NNE,22,0.0,0.0,86,0.00,,OVC047,0.00,VWS V14.00,2013-04-11 10:25:00,
2013-04-11 03:30:00,44.4,40.5,31.15,NNE,22,0.0,0.0,86,0.00,,OVC047,0.00,VWS V14.00,2013-04-11 10:30:00,
2013-04-11 03:35:00,44.4,40.5,31.15,NNE,22,0.0,0.0,86,0.00,,OVC047,0.00,VWS V14.00,2013-04-11 10:35:00,
2013-04-11 03:40:00,44.4,40.5,31.15,NNE,22,0.0,0.0,86,0.00,,OVC047,0.00,VWS V14.00,2013-04-11 10:40:00,
2013-04-11 03:45:00,44.4,40.5,31.15,NNE,22,0.0,0.0,86,0.00,,OVC045,0.00,VWS V14.00,2013-04-11 10:45:00,
2013-04-11 03:50:00,44.2,40.3,31.15,NNE,22,0.0,0.0,86,0.00,,OVC045,0.00,VWS V14.00,2013-04-11 10:50:00,
2013-04-11 03:55:00,44.2,40.3,31.15,NNE,22,0.0,0.0,86,0.00,,OVC045,0.00,VWS V14.00,2013-04-11 10:55:00,
2013-04-11 04:00:00,44.2,40.6,31.15,NNE,22,0.0,0.0,87,0.00,,OVC045,0.00,VWS V14.00,2013-04-11 11:00:00,
2013-04-11 04:05:00,44.2,40.6,31.15,NNE,22,0.0,0.0,87,0.00,,OVC045,0.00,VWS V14.00,2013-04-11 11:05:00,
2013-04-11 04:10:00,44.2,40.6,31.15,NNE,22,0.0,0.0,87,0.00,,OVC045,0.00,VWS V14.00,2013-04-11 11:10:00,
2013-04-11 04:15:00,44.2,40.6,31.15,NNE,22,0.0,0.0,87,0.00,,OVC045,0.00,VWS V14.00,2013-04-11 11:15:00,
2013-04-11 04:20:00,44.0,40.4,31.14,NNE,22,0.0,0.0,87,0.00,,OVC045,0.00,VWS V14.00,2013-04-11 11:20:00,
2013-04-11 04:25:00,44.0,40.4,31.14,NNE,22,0.0,0.0,87,0.00,,OVC045,0.00,VWS V14.00,2013-04-11 11:25:00,
2013-04-11 04:30:00,43.8,40.2,31.14,NNE,22,0.0,0.0,87,0.00,,OVC045,0.00,VWS V14.00,2013-04-11 11:30:00,
2013-04-11 04:35:00,43.8,40.2,31.14,NNE,22,0.0,0.0,87,0.00,,OVC045,0.00,VWS V14.00,2013-04-11 11:35:00,
2013-04-11 04:40:00,44.0,40.4,31.14,NNE,22,0.0,0.0,87,0.00,,OVC045,0.00,VWS V14.00,2013-04-11 11:40:00,
2013-04-11 04:45:00,44.2,40.6,31.14,NNE,22,0.0,0.0,87,0.00,,OVC047,0.00,VWS V14.00,2013-04-11 11:45:00,
2013-04-11 04:50:00,44.2,40.6,31.14,NNE,22,0.0,0.0,87,0.00,,OVC047,0.00,VWS V14.00,2013-04-11 11:50:00,
2013-04-11 04:55:00,44.2,40.6,31.14,NNE,22,0.0,0.0,87,0.00,,OVC047,0.00,VWS V14.00,2013-04-11 11:55:00,
2013-04-11 04:59:00,44.2,40.6,31.13,North,0,0.0,0.0,87,0.00,,OVC047,0.00,VWS V14.00,2013-04-11 11:59:00,
2013-04-11 05:04:00,44.2,40.6,31.13,NNE,22,0.0,0.0,87,0.00,,OVC047,0.00,VWS V14.00,2013-04-11 12:04:00,
2013-04-11 05:09:00,44.2,40.6,31.13,NNE,22,0.0,0.0,87,0.00,,OVC047,0.00,VWS V14.00,2013-04-11 12:09:00,
2013-04-11 05:14:00,44.0,40.4,31.13,NNE,22,0.0,0.0,87,0.00,,OVC047,0.00,VWS V14.00,2013-04-11 12:14:00,
2013-04-11 05:19:00,43.8,40.2,31.13,NNE,22,0.0,0.0,87,0.00,,OVC047,0.00,VWS V14.00,2013-04-11 12:19:00,
2013-04-11 05:24:00,43.7,40.1,31.13,NNE,22,0.0,0.0,87,0.00,,OVC047,0.00,VWS V14.00,2013-04-11 12:24:00,
2013-04-11 05:29:00,43.7,40.1,31.13,NNE,22,0.0,0.0,87,0.00,,OVC047,0.00,VWS V14.00,2013-04-11 12:29:00,
2013-04-11 05:34:00,43.7,40.1,31.13,NNE,22,0.0,0.0,87,0.00,,OVC047,0.00,VWS V14.00,2013-04-11 12:34:00,
2013-04-11 05:39:00,43.7,40.1,31.13,NNE,22,0.0,0.0,87,0.00,,OVC047,0.00,VWS V14.00,2013-04-11 12:39:00,
2013-04-11 05:44:00,43.5,39.9,31.13,NW,315,0.0,0.0,87,0.00,,OVC047,0.00,VWS V14.00,2013-04-11 12:44:00,
2013-04-11 05:49:00,43.5,39.9,31.13,NW,315,0.0,0.0,87,0.00,,OVC047,0.00,VWS V14.00,2013-04-11 12:49:00,
2013-04-11 05:54:00,43.3,39.7,31.13,NW,315,0.0,0.0,87,0.00,,OVC047,0.00,VWS V14.00,2013-04-11 12:54:00,
2013-04-11 05:59:00,43.1,39.2,31.13,NW,315,0.0,0.0,86,0.00,,OVC047,0.00,VWS V14.00,2013-04-11 12:59:00,
2013-04-11 06:04:00,42.9,38.7,31.13,NW,315,0.0,0.0,85,0.00,,OVC045,0.00,VWS V14.00,2013-04-11 13:04:00,
2013-04-11 06:09:00,42.9,38.7,31.13,NNW,338,4.9,4.9,85,0.00,,OVC045,0.00,VWS V14.00,2013-04-11 13:09:00,
2013-04-11 06:14:00,42.9,38.7,31.12,NNW,338,1.3,1.3,85,0.00,,OVC045,0.00,VWS V14.00,2013-04-11 13:14:00,
2013-04-11 06:19:00,42.9,38.7,31.12,North,0,5.3,5.3,85,0.00,,OVC045,0.00,VWS V14.00,2013-04-11 13:19:00,
2013-04-11 06:24:00,42.9,38.7,31.12,North,0,0.0,0.0,85,0.00,,OVC045,0.00,VWS V14.00,2013-04-11 13:24:00,
2013-04-11 06:29:00,42.9,39.0,31.12,North,0,0.0,0.0,86,0.00,,OVC045,0.00,VWS V14.00,2013-04-11 13:29:00,
2013-04-11 06:34:00,42.9,39.3,31.12,NNE,22,0.0,0.0,87,0.00,,OVC045,0.00,VWS V14.00,2013-04-11 13:34:00,
2013-04-11 06:39:00,42.9,39.3,31.12,NNE,22,0.0,0.0,87,0.00,,OVC045,0.00,VWS V14.00,2013-04-11 13:39:00,
2013-04-11 06:44:00,42.8,39.2,31.12,NNE,22,0.0,0.0,87,0.00,,SCT041,0.00,VWS V14.00,2013-04-11 13:44:00,
2013-04-11 06:49:00,42.9,39.3,31.13,NNE,22,0.0,0.0,87,0.00,,SCT041,0.00,VWS V14.00,2013-04-11 13:49:00,
2013-04-11 06:54:00,43.1,39.5,31.13,NE,45,0.0,0.0,87,0.00,,SCT041,0.00,VWS V14.00,2013-04-11 13:54:00,
2013-04-11 06:59:00,43.1,39.8,31.13,NE,45,0.0,0.0,88,0.00,,SCT041,0.00,VWS V14.00,2013-04-11 13:59:00,
2013-04-11 07:04:00,43.3,40.0,31.13,NE,45,0.0,0.0,88,0.00,,SCT041,0.00,VWS V14.00,2013-04-11 14:04:00,
2013-04-11 07:09:00,43.5,40.2,31.13,NE,45,0.0,0.0,88,0.00,,SCT041,0.00,VWS V14.00,2013-04-11 14:09:00,
2013-04-11 07:14:00,43.8,40.5,31.13,NE,45,0.0,0.0,88,0.00,,SCT041,0.00,VWS V14.00,2013-04-11 14:14:00,
2013-04-11 07:19:00,44.9,41.3,31.13,NE,45,0.0,0.0,87,0.00,,SCT041,0.00,VWS V14.00,2013-04-11 14:19:00,
2013-04-11 07:24:00,46.0,42.0,31.13,NE,45,0.0,0.0,86,0.00,,SCT041,0.00,VWS V14.00,2013-04-11 14:24:00,
2013-04-11 07:29:00,47.8,43.5,31.14,NE,45,0.0,0.0,85,0.00,,SCT041,0.00,VWS V14.00,2013-04-11 14:29:00,
2013-04-11 07:34:00,49.1,43.8,31.14,NE,45,0.0,0.0,82,0.00,,SCT041,0.00,VWS V14.00,2013-04-11 14:34:00,
2013-04-11 07:39:00,50.0,44.4,31.14,NE,45,0.0,0.0,81,0.00,,SCT041,0.00,VWS V14.00,2013-04-11 14:39:00,
2013-04-11 07:44:00,50.5,43.9,31.14,NE,45,0.0,0.0,78,0.00,,CLR,0.00,VWS V14.00,2013-04-11 14:44:00,
2013-04-11 07:49:00,49.8,42.9,31.14,NE,45,0.0,0.0,77,0.00,,CLR,0.00,VWS V14.00,2013-04-11 14:49:00,
2013-04-11 07:54:00,49.2,42.6,31.15,NE,45,0.0,0.0,78,0.00,,CLR,0.00,VWS V14.00,2013-04-11 14:54:00,
2013-04-11 07:59:00,49.2,42.3,31.15,NE,45,0.0,0.0,77,0.00,,CLR,0.00,VWS V14.00,2013-04-11 14:59:00,
2013-04-11 08:04:00,50.9,43.3,31.14,NE,45,0.0,0.0,75,0.00,,CLR,0.00,VWS V14.00,2013-04-11 15:04:00,
2013-04-11 08:09:00,52.3,43.9,31.14,NE,45,0.0,0.0,73,0.00,,CLR,0.00,VWS V14.00,2013-04-11 15:09:00,
2013-04-11 08:14:00,52.3,43.5,31.14,NE,45,0.0,0.0,72,0.00,,CLR,0.00,VWS V14.00,2013-04-11 15:14:00,
2013-04-11 08:19:00,51.9,42.8,31.14,NE,45,0.0,0.0,71,0.00,,CLR,0.00,VWS V14.00,2013-04-11 15:19:00,
2013-04-11 08:24:00,51.2,42.1,31.14,ENE,68,0.0,0.0,71,0.00,,CLR,0.00,VWS V14.00,2013-04-11 15:24:00,
2013-04-11 08:29:00,51.4,42.7,31.14,ENE,68,0.0,0.0,72,0.00,,CLR,0.00,VWS V14.00,2013-04-11 15:29:00,
2013-04-11 08:34:00,51.9,43.5,31.15,ENE,68,0.0,0.0,73,0.00,,CLR,0.00,VWS V14.00,2013-04-11 15:34:00,
2013-04-11 08:39:00,52.1,43.4,31.15,ENE,68,0.0,0.0,72,0.00,,CLR,0.00,VWS V14.00,2013-04-11 15:39:00,
2013-04-11 08:44:00,52.1,43.4,31.15,ENE,68,0.0,0.0,72,0.00,,CLR,0.00,VWS V14.00,2013-04-11 15:44:00,
2013-04-11 08:49:00,51.6,42.5,31.15,ENE,68,0.0,0.0,71,0.00,,CLR,0.00,VWS V14.00,2013-04-11 15:49:00,
2013-04-11 08:54:00,51.6,42.9,31.15,ENE,68,0.0,0.0,72,0.00,,CLR,0.00,VWS V14.00,2013-04-11 15:54:00,
2013-04-11 08:59:00,53.0,43.5,31.15,ENE,68,0.0,0.0,70,0.00,,CLR,0.00,VWS V14.00,2013-04-11 15:59:00,
2013-04-11 09:04:00,54.6,43.9,31.15,NE,45,0.0,0.0,67,0.00,,CLR,0.00,VWS V14.00,2013-04-11 16:04:00,
2013-04-11 09:09:00,54.1,43.4,31.15,NE,45,0.0,0.0,67,0.00,,CLR,0.00,VWS V14.00,2013-04-11 16:09:00,
2013-04-11 09:14:00,53.2,42.5,31.15,ENE,68,0.0,0.0,67,0.00,,CLR,0.00,VWS V14.00,2013-04-11 16:14:00,
2013-04-11 09:19:00,51.9,41.7,31.15,ENE,68,0.0,0.0,68,0.00,,CLR,0.00,VWS V14.00,2013-04-11 16:19:00,
2013-04-11 09:24:00,50.7,41.3,31.15,ENE,68,0.0,0.0,70,0.00,,CLR,0.00,VWS V14.00,2013-04-11 16:24:00,
2013-04-11 09:29:00,50.1,41.1,31.14,ENE,68,0.0,0.0,71,0.00,,CLR,0.00,VWS V14.00,2013-04-11 16:29:00,
2013-04-11 09:34:00,49.8,40.4,31.15,ENE,68,0.0,0.0,70,0.00,,CLR,0.00,VWS V14.00,2013-04-11 16:34:00,
2013-04-11 09:39:00,49.8,40.4,31.14,ENE,68,0.0,0.0,70,0.00,,CLR,0.00,VWS V14.00,2013-04-11 16:39:00,
2013-04-11 09:44:00,50.0,41.0,31.14,ENE,68,0.0,0.0,71,0.00,,BKN025,0.00,VWS V14.00,2013-04-11 16:44:00,
2013-04-11 09:49:00,49.8,40.8,31.14,ENE,68,0.0,0.0,71,0.00,,BKN025,0.00,VWS V14.00,2013-04-11 16:49:00,
2013-04-11 09:54:00,50.5,41.8,31.13,ENE,68,0.0,0.0,72,0.00,,BKN025,0.00,VWS V14.00,2013-04-11 16:54:00,
2013-04-11 09:59:00,51.6,41.4,31.13,SE,135,4.2,4.2,68,0.00,,BKN025,0.00,VWS V14.00,2013-04-11 16:59:00,
2013-04-11 10:04:00,53.4,43.5,31.14,SE,135,0.0,0.0,69,0.00,,BKN025,0.00,VWS V14.00,2013-04-11 17:04:00,
2013-04-11 10:09:00,53.7,42.2,31.14,SE,135,0.0,0.0,65,0.00,,BKN025,0.00,VWS V14.00,2013-04-11 17:09:00,
2013-04-11 10:14:00,52.8,42.2,31.14,SE,135,0.0,0.0,67,0.00,,BKN025,0.00,VWS V14.00,2013-04-11 17:14:00,
2013-04-11 10:19:00,52.1,41.5,31.14,SE,135,0.0,0.0,67,0.00,,BKN025,0.00,VWS V14.00,2013-04-11 17:19:00,
2013-04-11 10:24:00,51.4,41.2,31.14,ENE,68,7.1,7.1,68,0.00,,BKN025,0.00,VWS V14.00,2013-04-11 17:24:00,
2013-04-11 10:29:00,50.1,40.0,31.14,NNW,338,10.5,10.5,68,0.00,,BKN025,0.00,VWS V14.00,2013-04-11 17:29:00,
2013-04-11 10:34:00,49.6,40.2,31.15,North,0,5.3,5.3,70,0.00,,BKN025,0.00,VWS V14.00,2013-04-11 17:34:00,
2013-04-11 10:39:00,49.6,40.6,31.15,North,0,7.1,7.1,71,0.00,,BKN025,0.00,VWS V14.00,2013-04-11 17:39:00,
2013-04-11 10:44:00,50.1,41.1,31.14,NNW,338,8.5,8.5,71,0.00,,OVC041,0.00,VWS V14.00,2013-04-11 17:44:00,
2013-04-11 10:49:00,51.4,42.0,31.14,NW,315,5.5,5.5,70,0.00,,OVC041,0.00,VWS V14.00,2013-04-11 17:49:00,
2013-04-11 10:54:00,53.0,42.3,31.14,West,270,4.9,4.9,67,0.00,,OVC041,0.00,VWS V14.00,2013-04-11 17:54:00,
2013-04-11 10:59:00,53.2,41.3,31.14,NW,315,9.1,9.1,64,0.00,,OVC041,0.00,VWS V14.00,2013-04-11 17:59:00,
2013-04-11 11:04:00,52.3,40.5,31.14,WNW,292,5.1,5.1,64,0.00,,OVC041,0.00,VWS V14.00,2013-04-11 18:04:00,
2013-04-11 11:09:00,52.8,41.4,31.14,NW,315,8.2,8.2,65,0.00,,OVC041,0.00,VWS V14.00,2013-04-11 18:09:00,
2013-04-11 11:14:00,54.5,41.8,31.14,North,0,3.5,3.5,62,0.00,,OVC041,0.00,VWS V14.00,2013-04-11 18:14:00,
2013-04-11 11:19:00,55.2,41.6,31.14,North,0,6.4,6.4,60,0.00,,OVC041,0.00,VWS V14.00,2013-04-11 18:19:00,
2013-04-11 11:24:00,55.7,42.5,31.14,NNW,338,0.0,0.0,61,0.00,,OVC041,0.00,VWS V14.00,2013-04-11 18:24:00,
2013-04-11 11:29:00,56.3,41.7,31.14,NW,315,6.0,6.0,58,0.00,,OVC041,0.00,VWS V14.00,2013-04-11 18:29:00,
2013-04-11 11:34:00,55.9,40.5,31.14,NW,315,6.4,6.4,56,0.00,,OVC041,0.00,VWS V14.00,2013-04-11 18:34:00,
2013-04-11 11:39:00,55.9,40.5,31.14,NW,315,7.3,7.3,56,0.00,,OVC041,0.00,VWS V14.00,2013-04-11 18:39:00,
2013-04-11 11:44:00,55.7,40.3,31.14,WNW,292,10.7,10.7,56,0.00,,OVC040,0.00,VWS V14.00,2013-04-11 18:44:00,
2013-04-11 11:49:00,55.2,40.2,31.13,West,270,5.8,5.8,57,0.00,,OVC040,0.00,VWS V14.00,2013-04-11 18:49:00,
2013-04-11 11:54:00,56.3,40.8,31.14,WNW,292,8.2,8.2,56,0.00,,OVC040,0.00,VWS V14.00,2013-04-11 18:54:00,
2013-04-11 11:59:00,58.1,42.0,31.14,West,270,6.2,6.2,55,0.00,,OVC040,0.00,VWS V14.00,2013-04-11 18:59:00,
2013-04-11 12:04:00,58.6,41.0,31.13,WNW,292,10.2,10.2,52,0.00,,OVC040,0.00,VWS V14.00,2013-04-11 19:04:00,
2013-04-11 12:09:00,57.5,41.0,31.13,WNW,292,6.7,6.7,54,0.00,,OVC040,0.00,VWS V14.00,2013-04-11 19:09:00,
2013-04-11 12:14:00,56.8,41.3,31.13,NNE,22,8.2,8.2,56,0.00,,OVC040,0.00,VWS V14.00,2013-04-11 19:14:00,
2013-04-11 12:19:00,55.5,41.4,31.12,North,0,7.3,7.3,59,0.00,,OVC040,0.00,VWS V14.00,2013-04-11 19:19:00,
2013-04-11 12:24:00,56.3,42.2,31.12,North,0,6.4,6.4,59,0.00,,OVC040,0.00,VWS V14.00,2013-04-11 19:24:00,
2013-04-11 12:29:00,55.9,41.3,31.12,North,0,5.3,5.3,58,0.00,,OVC040,0.00,VWS V14.00,2013-04-11 19:29:00,
2013-04-11 12:34:00,55.7,41.6,31.11,NNE,22,5.1,5.1,59,0.00,,OVC040,0.00,VWS V14.00,2013-04-11 19:34:00,
2013-04-11 12:39:00,55.5,41.4,31.11,North,0,1.3,1.3,59,0.00,,OVC040,0.00,VWS V14.00,2013-04-11 19:39:00,
2013-04-11 12:44:00,55.4,41.3,31.12,North,0,7.8,7.8,59,0.00,,OVC065,0.00,VWS V14.00,2013-04-11 19:44:00,
2013-04-11 12:49:00,53.7,41.4,31.11,North,0,7.1,7.1,63,0.00,,OVC065,0.00,VWS V14.00,2013-04-11 19:49:00,
2013-04-11 12:54:00,52.5,40.3,31.11,NNE,22,8.9,8.9,63,0.00,,OVC065,0.00,VWS V14.00,2013-04-11 19:54:00,
2013-04-11 12:59:00,51.6,40.6,31.11,North,0,9.1,9.1,66,0.00,,OVC065,0.00,VWS V14.00,2013-04-11 19:59:00,
2013-04-11 13:04:00,51.2,40.2,31.11,North,0,7.8,7.8,66,0.00,,-RA,0.00,VWS V14.00,2013-04-11 20:04:00,
2013-04-11 13:09:00,51.0,40.4,31.11,North,0,8.9,8.9,67,0.00,,-RA,0.00,VWS V14.00,2013-04-11 20:09:00,
2013-04-11 13:14:00,51.4,40.0,31.11,North,0,7.3,7.3,65,0.00,,-RA,0.00,VWS V14.00,2013-04-11 20:14:00,
2013-04-11 13:19:00,52.1,41.5,31.11,North,0,5.8,5.8,67,0.00,,-RA,0.00,VWS V14.00,2013-04-11 20:19:00,
2013-04-11 13:24:00,54.8,42.0,31.11,North,0,11.8,11.8,62,0.00,,-RA,0.00,VWS V14.00,2013-04-11 20:24:00,
2013-04-11 13:29:00,54.1,41.0,31.11,North,0,7.8,7.8,61,0.00,,-RA,0.00,VWS V14.00,2013-04-11 20:29:00,
2013-04-11 13:34:00,53.2,40.5,31.10,North,0,5.1,5.1,62,0.00,,-RA,0.00,VWS V14.00,2013-04-11 20:34:00,
2013-04-11 13:39:00,52.8,40.2,31.10,North,0,10.5,10.5,62,0.00,,-RA,0.00,VWS V14.00,2013-04-11 20:39:00,
2013-04-11 13:44:00,53.0,40.3,31.10,North,0,7.6,7.6,62,0.00,,BKN044,0.00,VWS V14.00,2013-04-11 20:44:00,
2013-04-11 13:49:00,53.2,40.5,31.10,NNW,338,7.3,7.3,62,0.00,,BKN044,0.00,VWS V14.00,2013-04-11 20:49:00,
2013-04-11 13:54:00,53.4,39.9,31.09,West,270,4.0,4.0,60,0.00,,BKN044,0.00,VWS V14.00,2013-04-11 20:54:00,
2013-04-11 13:59:00,55.2,41.1,31.10,North,0,2.0,2.0,59,0.00,,BKN044,0.00,VWS V14.00,2013-04-11 20:59:00,
2013-04-11 14:04:00,57.3,41.8,31.10,NNE,22,0.0,0.0,56,0.00,,BKN044,0.00,VWS V14.00,2013-04-11 21:04:00,
2013-04-11 14:09:00,58.8,42.2,31.09,NNW,338,6.0,6.0,54,0.00,,BKN044,0.00,VWS V14.00,2013-04-11 21:09:00,
2013-04-11 14:14:00,59.7,40.5,31.10,West,270,5.5,5.5,49,0.00,,BKN044,0.00,VWS V14.00,2013-04-11 21:14:00,
2013-04-11 14:19:00,58.8,40.2,31.10,NNW,338,0.0,0.0,50,0.00,,BKN044,0.00,VWS V14.00,2013-04-11 21:19:00,
2013-04-11 14:24:00,57.7,42.1,31.10,NNW,338,14.3,14.3,56,0.00,,BKN044,0.00,VWS V14.00,2013-04-11 21:24:00,
2013-04-11 14:29:00,55.0,41.4,31.09,NNW,338,10.5,10.5,60,0.00,,BKN044,0.00,VWS V14.00,2013-04-11 21:29:00,
2013-04-11 14:34:00,53.2,41.3,31.09,NNW,338,21.6,21.6,64,0.00,,BKN044,0.00,VWS V14.00,2013-04-11 21:34:00,
2013-04-11 14:39:00,51.4,40.4,31.10,North,0,18.3,18.3,66,0.00,,BKN044,0.00,VWS V14.00,2013-04-11 21:39:00,
2013-04-11 14:44:00,50.7,40.5,31.09,NNW,338,12.9,12.9,68,0.00,,-RA,0.00,VWS V14.00,2013-04-11 21:44:00,
2013-04-11 14:49:00,51.4,40.4,31.09,North,0,18.7,18.7,66,0.00,,-RA,0.00,VWS V14.00,2013-04-11 21:49:00,
2013-04-11 14:54:00,51.9,40.5,31.09,North,0,18.3,18.3,65,0.00,,-RA,0.00,VWS V14.00,2013-04-11 21:54:00,
2013-04-11 14:59:00,52.3,40.5,31.09,NNE,22,12.9,12.9,64,0.00,,-RA,0.00,VWS V14.00,2013-04-11 21:59:00,
2013-04-11 15:04:00,52.7,40.1,31.09,North,0,9.1,9.1,62,0.00,,-RA,0.00,VWS V14.00,2013-04-11 22:04:00,
2013-04-11 15:09:00,53.2,40.1,31.09,North,0,12.3,12.3,61,0.00,,-RA,0.00,VWS V14.00,2013-04-11 22:09:00,
2013-04-11 15:14:00,52.8,40.2,31.09,North,0,13.1,13.1,62,0.00,,-RA,0.00,VWS V14.00,2013-04-11 22:14:00,
2013-04-11 15:19:00,52.5,39.9,31.09,NNE,22,10.7,10.7,62,0.00,,-RA,0.00,VWS V14.00,2013-04-11 22:19:00,
2013-04-11 15:24:00,53.0,40.3,31.08,NNE,22,9.3,9.3,62,0.00,,-RA,0.00,VWS V14.00,2013-04-11 22:24:00,
2013-04-11 15:29:00,53.9,40.8,31.08,NNE,22,12.5,12.5,61,0.00,,-RA,0.00,VWS V14.00,2013-04-11 22:29:00,
2013-04-11 15:34:00,54.5,40.9,31.08,North,0,13.4,13.4,60,0.00,,-RA,0.00,VWS V14.00,2013-04-11 22:34:00,
2013-04-11 15:39:00,55.2,41.1,31.08,NNE,22,9.3,9.3,59,0.00,,-RA,0.00,VWS V14.00,2013-04-11 22:39:00,
2013-04-11 15:44:00,54.6,40.1,31.07,NNE,22,9.1,9.1,58,0.00,,BKN055,0.00,VWS V14.00,2013-04-11 22:44:00,
2013-04-11 15:49:00,53.7,39.7,31.07,North,0,9.6,9.6,59,0.00,,BKN055,0.00,VWS V14.00,2013-04-11 22:49:00,
2013-04-11 15:54:00,53.2,40.5,31.07,North,0,11.6,11.6,62,0.00,,BKN055,0.00,VWS V14.00,2013-04-11 22:54:00,
2013-04-11 15:59:00,52.8,40.6,31.07,North,0,17.6,17.6,63,0.00,,BKN055,0.00,VWS V14.00,2013-04-11 22:59:00,
2013-04-11 16:04:00,52.3,40.1,31.07,North,0,17.8,17.8,63,0.00,,BKN055,0.00,VWS V14.00,2013-04-11 23:04:00,
2013-04-11 16:09:00,52.3,39.3,31.06,North,0,16.7,16.7,61,0.00,,BKN055,0.00,VWS V14.00,2013-04-11 23:09:00,
2013-04-11 16:14:00,52.1,39.1,31.06,North,0,17.2,17.2,61,0.00,,BKN055,0.00,VWS V14.00,2013-04-11 23:14:00,
2013-04-11 16:19:00,52.1,39.9,31.06,NNW,338,11.8,11.8,63,0.00,,BKN055,0.00,VWS V14.00,2013-04-11 23:19:00,
2013-04-11 16:24:00,52.5,39.5,31.06,North,0,12.3,12.3,61,0.00,,BKN055,0.00,VWS V14.00,2013-04-11 23:24:00,
2013-04-11 16:29:00,52.7,39.2,31.06,North,0,7.1,7.1,60,0.00,,BKN055,0.00,VWS V14.00,2013-04-11 23:29:00,
2013-04-11 16:34:00,53.4,39.0,31.05,North,0,13.1,13.1,58,0.00,,BKN055,0.00,VWS V14.00,2013-04-11 23:34:00,
2013-04-11 16:39:00,53.2,38.8,31.05,North,0,10.7,10.7,58,0.00,,BKN055,0.00,VWS V14.00,2013-04-11 23:39:00,
2013-04-11 16:44:00,53.7,37.5,31.05,NNW,338,6.2,6.2,54,0.00,,OVC055,0.00,VWS V14.00,2013-04-11 23:44:00,
2013-04-11 16:49:00,54.6,37.8,31.05,NNE,22,6.7,6.7,53,0.00,,OVC055,0.00,VWS V14.00,2013-04-11 23:49:00,
2013-04-11 16:54:00,54.8,38.0,31.05,NNE,22,5.5,5.5,53,0.00,,OVC055,0.00,VWS V14.00,2013-04-11 23:54:00,
2013-04-11 16:59:00,54.6,38.3,31.05,North,0,8.0,8.0,54,0.00,,OVC055,0.00,VWS V14.00,2013-04-11 23:59:00,
2013-04-11 17:04:00,55.2,39.3,31.05,North,0,9.6,9.6,55,0.00,,OVC055,0.00,VWS V14.00,2013-04-12 00:04:00,
2013-04-11 17:09:00,55.2,39.8,31.05,North,0,8.2,8.2,56,0.00,,OVC055,0.00,VWS V14.00,2013-04-12 00:09:00,
2013-04-11 17:14:00,55.5,40.5,31.05,North,0,11.1,11.1,57,0.00,,OVC055,0.00,VWS V14.00,2013-04-12 00:14:00,
2013-04-11 17:19:00,55.2,39.8,31.05,North,0,12.3,12.3,56,0.00,,OVC055,0.00,VWS V14.00,2013-04-12 00:19:00,
2013-04-11 17:24:00,54.6,39.7,31.05,North,0,7.3,7.3,57,0.00,,OVC055,0.00,VWS V14.00,2013-04-12 00:24:00,
2013-04-11 17:29:00,54.5,40.0,31.05,NNE,22,6.0,6.0,58,0.00,,OVC055,0.00,VWS V14.00,2013-04-12 00:29:00,
2013-04-11 17:34:00,56.4,40.5,31.04,North,0,8.5,8.5,55,0.00,,OVC055,0.00,VWS V14.00,2013-04-12 00:34:00,
2013-04-11 17:39:00,57.7,40.7,31.04,North,0,6.4,6.4,53,0.00,,OVC055,0.00,VWS V14.00,2013-04-12 00:39:00,
2013-04-11 17:44:00,57.3,40.8,31.04,NNE,22,7.8,7.8,54,0.00,,OVC055,0.00,VWS V14.00,2013-04-12 00:44:00,
2013-04-11 17:49:00,55.7,40.3,31.04,North,0,7.8,7.8,56,0.00,,OVC055,0.00,VWS V14.00,2013-04-12 00:49:00,
2013-04-11 17:54:00,54.3,40.3,31.04,North,0,7.6,7.6,59,0.00,,OVC055,0.00,VWS V14.00,2013-04-12 00:54:00,
2013-04-11 17:59:00,53.7,39.7,31.04,NNW,338,7.6,7.6,59,0.00,,OVC055,0.00,VWS V14.00,2013-04-12 00:59:00,
2013-04-11 18:04:00,53.4,39.0,31.04,North,0,7.8,7.8,58,0.00,,OVC055,0.00,VWS V14.00,2013-04-12 01:04:00,
2013-04-11 18:09:00,53.7,39.3,31.04,NNW,338,7.6,7.6,58,0.00,,OVC055,0.00,VWS V14.00,2013-04-12 01:09:00,
2013-04-11 18:14:00,54.6,38.8,31.03,NNW,338,6.7,6.7,55,0.00,,OVC055,0.00,VWS V14.00,2013-04-12 01:14:00,
2013-04-11 18:19:00,56.3,39.9,31.03,NNE,22,7.6,7.6,54,0.00,,OVC055,0.00,VWS V14.00,2013-04-12 01:19:00,
2013-04-11 18:24:00,57.0,40.1,31.03,North,0,7.6,7.6,53,0.00,,OVC055,0.00,VWS V14.00,2013-04-12 01:24:00,
2013-04-11 18:29:00,57.0,40.1,31.02,North,0,11.6,11.6,53,0.00,,OVC055,0.00,VWS V14.00,2013-04-12 01:29:00,
2013-04-11 18:34:00,56.6,39.2,31.02,NNE,22,5.5,5.5,52,0.00,,OVC055,0.00,VWS V14.00,2013-04-12 01:34:00,
2013-04-11 18:39:00,56.4,39.0,31.02,North,0,0.0,0.0,52,0.00,,OVC055,0.00,VWS V14.00,2013-04-12 01:39:00,
2013-04-11 18:44:00,56.4,39.0,31.02,NW,315,8.2,8.2,52,0.00,,-RA,0.00,VWS V14.00,2013-04-12 01:44:00,
2013-04-11 18:49:00,56.4,37.5,31.02,NW,315,7.8,7.8,49,0.00,,-RA,0.00,VWS V14.00,2013-04-12 01:49:00,
2013-04-11 18:54:00,56.8,37.3,31.02,NNW,338,2.2,2.2,48,0.00,,-RA,0.00,VWS V14.00,2013-04-12 01:54:00,
2013-04-11 18:59:00,56.6,36.6,31.02,NW,315,7.8,7.8,47,0.00,,-RA,0.00,VWS V14.00,2013-04-12 01:59:00,
2013-04-11 19:04:00,56.3,36.3,31.02,NW,315,6.7,6.7,47,0.00,,-RA,0.00,VWS V14.00,2013-04-12 02:04:00,
2013-04-11 19:09:00,55.7,36.3,31.02,NNW,338,7.1,7.1,48,0.00,,-RA,0.00,VWS V14.00,2013-04-12 02:09:00,
2013-04-11 19:14:00,55.2,35.9,31.02,WNW,292,7.6,7.6,48,0.00,,-RA,0.00,VWS V14.00,2013-04-12 02:14:00,
2013-04-11 19:19:00,54.6,35.3,31.02,NW,315,8.0,8.0,48,0.00,,-RA,0.00,VWS V14.00,2013-04-12 02:19:00,
2013-04-11 19:24:00,54.1,35.4,31.02,WNW,292,6.4,6.4,49,0.00,,-RA,0.00,VWS V14.00,2013-04-12 02:24:00,
2013-04-11 19:29:00,53.4,35.2,31.02,NW,315,3.3,3.3,50,0.00,,-RA,0.00,VWS V14.00,2013-04-12 02:29:00,
2013-04-11 19:34:00,52.8,35.2,31.02,NW,315,6.4,6.4,51,0.00,,-RA,0.00,VWS V14.00,2013-04-12 02:34:00,
2013-04-11 19:39:00,52.3,35.2,31.02,NNW,338,5.5,5.5,52,0.00,,-RA,0.00,VWS V14.00,2013-04-12 02:39:00,
2013-04-11 19:44:00,51.6,35.5,31.02,NW,315,6.7,6.7,54,0.00,,BKN055,0.00,VWS V14.00,2013-04-12 02:44:00,
2013-04-11 19:49:00,50.7,34.7,31.02,NW,315,10.9,10.9,54,0.00,,BKN055,0.00,VWS V14.00,2013-04-12 02:49:00,
2013-04-11 19:54:00,50.1,35.0,31.02,NW,315,6.7,6.7,56,0.00,,BKN055,0.00,VWS V14.00,2013-04-12 02:54:00,
2013-04-11 19:59:00,49.8,35.2,31.02,NNW,338,8.0,8.0,57,0.00,,BKN055,0.00,VWS V14.00,2013-04-12 02:59:00,
2013-04-11 20:04:00,49.4,35.3,31.02,NNW,338,3.8,3.8,58,0.00,,BKN055,0.00,VWS V14.00,2013-04-12 03:04:00,
2013-04-11 20:09:00,48.9,35.2,31.02,NNW,338,6.7,6.7,59,0.00,,BKN055,0.00,VWS V14.00,2013-04-12 03:09:00,
2013-04-11 20:14:00,48.7,35.5,31.02,North,0,6.7,6.7,60,0.00,,BKN055,0.00,VWS V14.00,2013-04-12 03:14:00,
2013-04-11 20:19:00,48.5,35.3,31.02,NNW,338,7.1,7.1,60,0.00,,BKN055,0.00,VWS V14.00,2013-04-12 03:19:00,
2013-04-11 20:24:00,48.3,35.1,31.02,NNW,338,8.2,8.2,60,0.00,,BKN055,0.00,VWS V14.00,2013-04-12 03:24:00,
2013-04-11 20:29:00,48.3,35.1,31.02,North,0,6.2,6.2,60,0.00,,BKN055,0.00,VWS V14.00,2013-04-12 03:29:00,
2013-04-11 20:34:00,48.0,35.2,31.02,NNW,338,8.7,8.7,61,0.00,,BKN055,0.00,VWS V14.00,2013-04-12 03:34:00,
2013-04-11 20:39:00,47.6,35.2,31.02,NW,315,6.0,6.0,62,0.00,,BKN055,0.00,VWS V14.00,2013-04-12 03:39:00,
2013-04-11 20:44:00,47.3,35.0,31.02,NNW,338,7.1,7.1,62,0.00,,CLR,0.00,VWS V14.00,2013-04-12 03:44:00,
2013-04-11 20:49:00,47.1,34.8,31.02,North,0,2.2,2.2,62,0.00,,CLR,0.00,VWS V14.00,2013-04-12 03:49:00,
2013-04-11 20:54:00,46.9,35.0,31.02,NNW,338,5.3,5.3,63,0.00,,CLR,0.00,VWS V14.00,2013-04-12 03:54:00,
2013-04-11 20:59:00,46.5,35.0,31.02,NNW,338,4.0,4.0,64,0.00,,CLR,0.00,VWS V14.00,2013-04-12 03:59:00,
2013-04-11 21:00:00,46.5,35.0,31.02,NNW,338,4.0,4.0,64,0.00,,CLR,0.00,VWS V14.00,2013-04-12 04:00:00,
2013-04-11 21:05:00,46.2,35.1,31.02,NW,315,7.1,7.1,65,0.00,,CLR,0.00,VWS V14.00,2013-04-12 04:05:00,
2013-04-11 21:10:00,46.2,35.1,31.02,NW,315,7.3,7.6,65,0.00,,CLR,0.00,VWS V14.00,2013-04-12 04:10:00,
2013-04-11 21:15:00,46.0,34.9,31.02,NNW,338,10.2,10.2,65,0.00,,CLR,0.00,VWS V14.00,2013-04-12 04:15:00,
2013-04-11 21:20:00,45.8,34.7,31.02,North,0,8.0,8.0,65,0.00,,CLR,0.00,VWS V14.00,2013-04-12 04:20:00,
2013-04-11 21:25:00,45.6,34.5,31.02,NNW,338,8.2,8.2,65,0.00,,CLR,0.00,VWS V14.00,2013-04-12 04:25:00,
2013-04-11 21:30:00,45.5,34.4,31.02,NW,315,5.1,5.1,65,0.00,,CLR,0.00,VWS V14.00,2013-04-12 04:30:00,
2013-04-11 21:35:00,45.3,34.6,31.02,NW,315,9.6,9.6,66,0.00,,CLR,0.00,VWS V14.00,2013-04-12 04:35:00,
2013-04-11 21:40:00,45.1,34.4,31.02,NW,315,8.9,8.9,66,0.00,,CLR,0.00,VWS V14.00,2013-04-12 04:40:00,
2013-04-11 21:45:00,45.1,34.8,31.02,NW,315,12.0,12.0,67,0.00,,CLR,0.00,VWS V14.00,2013-04-12 04:45:00,
2013-04-11 21:50:00,44.9,34.6,31.03,North,0,5.3,5.3,67,0.00,,CLR,0.00,VWS V14.00,2013-04-12 04:50:00,
2013-04-11 21:55:00,44.7,34.4,31.03,NNW,338,7.8,7.8,67,0.00,,CLR,0.00,VWS V14.00,2013-04-12 04:55:00,
2013-04-11 22:00:00,44.6,34.7,31.03,North,0,5.5,5.5,68,0.00,,CLR,0.00,VWS V14.00,2013-04-12 05:00:00,
2013-04-11 22:05:00,44.4,34.5,31.03,NNW,338,6.4,6.4,68,0.00,,CLR,0.00,VWS V14.00,2013-04-12 05:05:00,
2013-04-11 22:10:00,44.2,34.3,31.02,NW,315,6.9,6.9,68,0.00,,CLR,0.00,VWS V14.00,2013-04-12 05:10:00,
2013-04-11 22:15:00,43.8,34.3,31.03,WNW,292,3.3,3.3,69,0.00,,CLR,0.00,VWS V14.00,2013-04-12 05:15:00,
2013-04-11 22:20:00,43.7,34.2,31.03,NNW,338,6.0,6.0,69,0.00,,CLR,0.00,VWS V14.00,2013-04-12 05:20:00,
2013-04-11 22:25:00,43.5,34.4,31.02,NW,315,2.0,2.0,70,0.00,,CLR,0.00,VWS V14.00,2013-04-12 05:25:00,
2013-04-11 22:30:00,43.3,34.2,31.02,NW,315,7.6,7.6,70,0.00,,CLR,0.00,VWS V14.00,2013-04-12 05:30:00,
2013-04-11 22:35:00,43.1,34.0,31.03,North,0,0.0,0.0,70,0.00,,CLR,0.00,VWS V14.00,2013-04-12 05:35:00,
2013-04-11 22:40:00,42.9,33.8,31.02,NNW,338,1.3,1.3,70,0.00,,CLR,0.00,VWS V14.00,2013-04-12 05:40:00,
2013-04-11 22:45:00,42.8,34.1,31.03,NW,315,5.3,5.3,71,0.00,,CLR,0.00,VWS V14.00,2013-04-12 05:45:00,
2013-04-11 22:50:00,42.6,33.9,31.02,North,0,0.0,0.0,71,0.00,,CLR,0.00,VWS V14.00,2013-04-12 05:50:00,
2013-04-11 22:55:00,42.6,33.9,31.03,NNW,338,4.6,4.6,71,0.00,,CLR,0.00,VWS V14.00,2013-04-12 05:55:00,
2013-04-11 23:00:00,42.6,34.2,31.03,NNW,338,7.8,7.8,72,0.00,,CLR,0.00,VWS V14.00,2013-04-12 06:00:00,
2013-04-11 23:05:00,42.6,34.2,31.02,NNW,338,6.9,6.9,72,0.00,,CLR,0.00,VWS V14.00,2013-04-12 06:05:00,
2013-04-11 23:10:00,42.4,34.0,31.02,NNW,338,1.5,1.5,72,0.00,,CLR,0.00,VWS V14.00,2013-04-12 06:10:00,
2013-04-11 23:15:00,42.4,34.0,31.02,NW,315,5.3,5.3,72,0.00,,CLR,0.00,VWS V14.00,2013-04-12 06:15:00,
2013-04-11 23:20:00,42.4,34.0,31.02,NW,315,4.4,4.4,72,0.00,,CLR,0.00,VWS V14.00,2013-04-12 06:20:00,
2013-04-11 23:25:00,42.0,34.0,31.02,WNW,292,6.4,6.4,73,0.00,,CLR,0.00,VWS V14.00,2013-04-12 06:25:00,
2013-04-11 23:30:00,41.9,33.9,31.02,WNW,292,4.9,4.9,73,0.00,,CLR,0.00,VWS V14.00,2013-04-12 06:30:00,
2013-04-11 23:35:00,41.7,33.7,31.01,WNW,292,3.3,3.3,73,0.00,,CLR,0.00,VWS V14.00,2013-04-12 06:35:00,
2013-04-11 23:40:00,41.7,34.0,31.01,NW,315,4.9,4.9,74,0.00,,CLR,0.00,VWS V14.00,2013-04-12 06:40:00,
2013-04-11 23:45:00,41.5,33.8,31.01,WNW,292,4.0,4.0,74,0.00,,CLR,0.00,VWS V14.00,2013-04-12 06:45:00,
2013-04-11 23:50:00,41.5,33.8,31.01,NW,315,5.3,5.3,74,0.00,,CLR,0.00,VWS V14.00,2013-04-12 06:50:00,
2013-04-11 23:55:00,41.3,33.7,31.00,WNW,292,2.2,2.2,74,0.00,,CLR,0.00,VWS V14.00,2013-04-12 06:55:00,